Miscellaneous Local Product
Issued by NWS Hastings, NE

Home | Current Version | Previous Version | Text Only | Print | Product List | Glossary Off
Versions: 1 2 3 4 5 6 7 8 9 10 11 12 13 14 15 16 17 18 19 20 21 22 23 24 25 26 27 28 29 30 31 32 33 34 35 36 37 38 39 40 41 42 43 44 45 46 47 48 49 50

000
AXUS43 KGID 220802
MISGRI

GID CWA HOURLY WEATHER ROUNDUP
NATIONAL WEATHER SERVICE HASTINGS NE
200 AM CST MON DEC 22 2014

NOTE: "FAIR" INDICATES FEW OR NO CLOUDS BELOW 12,000 FEET WITH NO
SIGNIFICANT WEATHER AND/OR OBSTRUCTIONS TO VISIBILITY.

...SOUTH CENTRAL NEBRASKA...

CITY           SKY/WX    TMP DP  RH WIND       PRES   REMARKS
GRAND ISLAND   CLOUDY    42  39  89 S10       29.52S
HASTINGS       CLOUDY    42  39  89 S12       29.51S
KEARNEY        CLOUDY    39  37  93 S9        29.51S WCI  33
ORD            NOT AVBL
YORK           CLOUDY    43  41  93 S12       29.54F FOG
AURORA         CLOUDY    42  42 100 S13       29.52F
LEXINGTON      FOG       33  32  96 W5        29.50F VSB 1/2 WCI  29
HOLDREGE       CLOUDY    38  37  93 SW8       29.51R FOG     WCI  32
HEBRON         CLOUDY    43  41  93 S10       29.56F FOG

...NEBRASKA PANHANDLE...

CITY           SKY/WX    TMP DP  RH WIND       PRES   REMARKS
CHADRON        CLOUDY    38  30  73 NW21G29   29.58S WCI  28
ALLIANCE       PTCLDY    35  28  75 NW14      29.57R WCI  26
SCOTTSBLUFF    MOCLDY    36  30  79 W13       29.63R WCI  27
SIDNEY         CLOUDY    36  28  73 NW16      29.61R WCI  26

...WESTERN AND NORTH CENTRAL NEBRASKA...

CITY           SKY/WX    TMP DP  RH WIND       PRES   REMARKS
VALENTINE      CLOUDY    39  34  82 NW13G18   29.47S WCI  31
AINSWORTH      CLOUDY    36  32  86 W9        29.46S WCI  29
ONEILL         CLOUDY    38  38 100 S8        29.47S FOG     WCI  32
BROKEN BOW     CLOUDY    36  33  89 W6        29.48S WCI  31
IMPERIAL       CLOUDY    40  29  64 NW17      29.55S WCI  31
NORTH PLATTE   MOCLDY    26  25  96 N5        29.52S WCI  20
MCCOOK         PTCLDY    34  30  85 W14       29.52F WCI  25

...EASTERN NEBRASKA...

CITY           SKY/WX    TMP DP  RH WIND       PRES   REMARKS
NORFOLK        CLOUDY    43  40  89 S13       29.51F
SO SIOUX CITY  CLOUDY    42  41  96 SE9       29.56F FOG
TEKAMAH        LGT RAIN  44  42  93 SE15      29.58F FOG
COLUMBUS       CLOUDY    43  39  87 S14       29.54F
ALBION         LGT RAIN  41  38  90 S10       29.51F
OMAHA EPPLEY   DRIZZLE   43  42  97 S15       29.61F FOG
OFFUTT AFB     CLOUDY    43  42  96 SE12      29.60F
MILLARD        CLOUDY    44  42  92 SE12      29.60F FOG
LINCOLN        LGT RAIN  44  42  93 S14       29.58F
NEBRASKA CITY  DRIZZLE   42  42 100 S15G21    29.62F
BEATRICE       CLOUDY    42  42  97 S12G21    29.58F FOG
FALLS CITY     CLOUDY    43  40  89 S9        29.64F

...NORTHERN KANSAS...

CITY           SKY/WX    TMP DP  RH WIND       PRES   REMARKS
GOODLAND       MOCLDY    38  32  79 NW20G28   29.59R WCI  28
HILL CITY      MOCLDY    38  34  85 SW5       29.52S WCI  34
NORTON         MOSUNNY   36  30  80 W9        29.51R WCI  29
PHILLIPSBURG   PTCLDY    41  41 100 S5        29.52S
SMITH CENTER   CLOUDY    41  39  93 S7        29.53F FOG
BELOIT         CLOUDY    45  45 100 SE10      29.55S
HAYS           CLOUDY    45  37  76 SW12      29.53S
RUSSELL        CLOUDY    44  43  96 S17       29.52F FOG
CONCORDIA      CLOUDY    43  43 100 S14G21    29.56F FOG
SALINA         CLOUDY    45  43  93 S14       29.58F FOG
TOPEKA         CLOUDY    45  41  86 S10       29.66F



USA.gov is the U.S. government's official web portal to all federal, state and local government web resources and services.